FW7499 Weather Reports


Display with metric or nautical units.
time (UTC)temp
F
wind
direction
speed
MPH
gust
MPH
rain 1hr
in
rain 24hr
in
rain mn
in
humidity
%
barometer
mb
20260507223510 72 323 0.0 8.0 0.00 0.00 0.00 28 1008.3
20260507223027 72 327 3.0 9.0 0.00 0.00 0.00 28 1008.5
20260507222509 72 294 3.0 9.0 0.00 0.00 0.00 29 1008.5
20260507222007 72 311 4.0 9.0 0.00 0.00 0.00 27 1008.5
20260507221503 72 319 4.0 9.0 0.00 0.00 0.00 29 1008.5
20260507221002 73 331 3.0 8.0 0.00 0.00 0.00 27 1008.5
20260507220502 72 275 1.0 11.0 0.00 0.00 0.00 31 1008.6
20260507220018 72 317 3.0 11.0 0.00 0.00 0.00 29 1008.4
20260507215503 72 319 6.0 11.0 0.00 0.00 0.00 28 1008.5
20260507215003 73 309 3.0 7.0 0.00 0.00 0.00 28 1008.6
20260507214510 72 360 2.0 9.0 0.00 0.00 0.00 31 1008.5
20260507214003 72 319 2.0 9.0 0.00 0.00 0.00 30 1008.6
20260507213503 72 221 1.0 10.0 0.00 0.00 0.00 27 1008.7
20260507213009 72 339 4.0 10.0 0.00 0.00 0.00 29 1008.7
20260507212505 72 340 2.0 9.0 0.00 0.00 0.00 30 1008.7
20260507212003 72 217 3.0 9.0 0.00 0.00 0.00 28 1008.7
20260507211512 72 346 3.0 14.0 0.00 0.00 0.00 27 1008.6
20260507211005 73 315 6.0 14.0 0.00 0.00 0.00 28 1008.8
20260507210514 73 321 3.0 9.0 0.00 0.00 0.00 28 1008.8
20260507210003 73 346 3.0 11.0 0.00 0.00 0.00 30 1008.7
20260507205505 72 314 3.0 11.0 0.00 0.00 0.00 28 1008.8
20260507205007 72 340 6.0 10.0 0.00 0.00 0.00 28 1008.9
20260507204508 73 316 6.0 10.0 0.00 0.00 0.00 32 1008.9
20260507204003 72 11 3.0 12.0 0.00 0.00 0.00 30 1008.9
20260507203503 72 341 4.0 12.0 0.00 0.00 0.00 30 1009.1
20260507203007 72 340 2.0 10.0 0.00 0.00 0.00 32 1009.0
20260507202504 72 296 3.0 11.0 0.00 0.00 0.00 28 1009.1
20260507202004 73 302 4.0 11.0 0.00 0.00 0.00 28 1009.1
20260507201505 73 351 1.0 7.0 0.00 0.00 0.00 29 1009.1
20260507201004 73 296 1.0 8.0 0.00 0.00 0.00 28 1009.2
20260507200504 72 263 1.0 13.0 0.00 0.00 0.00 31 1009.1
20260507200014 73 338 3.0 13.0 0.00 0.00 0.00 32 1009.2
20260507195507 73 302 2.0 9.0 0.00 0.00 0.00 31 1009.0
20260507195003 72 311 4.0 9.0 0.00 0.00 0.00 32 1009.0
20260507194510 72 336 3.0 9.0 0.00 0.00 0.00 34 1009.0
20260507194007 72 346 2.0 10.0 0.00 0.00 0.00 29 1009.0
20260507193509 73 355 0.0 11.0 0.00 0.00 0.00 37 1009.0
20260507193008 73 338 2.0 11.0 0.00 0.00 0.00 36 1009.0
20260507192503 72 321 2.0 11.0 0.00 0.00 0.00 36 1009.0
20260507192003 72 319 1.0 11.0 0.00 0.00 0.00 37 1009.0
20260507191509 73 240 3.0 10.0 0.00 0.00 0.00 35 1009.0
20260507191003 72 322 4.0 10.0 0.00 0.00 0.00 35 1009.0
20260507190508 71 238 2.0 5.0 0.00 0.00 0.00 37 1009.1
20260507190014 71 309 2.0 9.0 0.00 0.00 0.00 34 1009.0
20260507185503 70 69 2.0 9.0 0.00 0.00 0.00 35 1009.1
20260507185006 71 307 3.0 10.0 0.00 0.00 0.00 37 1009.2
20260507184511 71 34 3.0 12.0 0.00 0.00 0.00 38 1009.2
20260507184007 71 298 3.0 12.0 0.00 0.00 0.00 36 1009.2
20260507183502 71 323 3.0 12.0 0.00 0.00 0.00 35 1009.3
20260507183008 70 202 2.0 12.0 0.00 0.00 0.00 34 1009.4
20260507182508 71 301 3.0 8.0 0.00 0.00 0.00 34 1009.4
20260507182011 70 302 2.0 8.0 0.00 0.00 0.00 34 1009.5
20260507181515 70 257 2.0 11.0 0.00 0.00 0.00 41 1009.7
20260507181006 70 292 4.0 11.0 0.00 0.00 0.00 38 1009.6
20260507180506 70 317 4.0 11.0 0.00 0.00 0.00 39 1009.7
20260507180010 69 231 2.0 10.0 0.00 0.00 0.00 36 1009.7
20260507175508 70 300 3.0 10.0 0.00 0.00 0.00 38 1009.7
20260507175006 70 352 3.0 12.0 0.00 0.00 0.00 42 1009.8
20260507174510 68 279 5.0 12.0 0.00 0.00 0.00 39 1009.8
20260507174004 68 352 4.0 9.0 0.00 0.00 0.00 34 1009.9
20260507173505 68 143 2.0 8.0 0.00 0.00 0.00 36 1009.9
20260507173033 69 82 2.0 9.0 0.00 0.00 0.00 38 1009.9
20260507172506 67 261 2.0 10.0 0.00 0.00 0.00 38 1010.1
20260507172006 67 336 4.0 10.0 0.00 0.00 0.00 38 1010.1
20260507171519 67 294 3.0 9.0 0.00 0.00 0.00 37 1010.2
20260507171005 68 279 1.0 8.0 0.00 0.00 0.00 42 1010.2
20260507170507 67 266 2.0 8.0 0.00 0.00 0.00 43 1010.2
20260507170017 67 351 2.0 8.0 0.00 0.00 0.00 41 1010.4
20260507165505 67 122 2.0 12.0 0.00 0.00 0.00 37 1010.4
20260507165006 66 44 3.0 12.0 0.00 0.00 0.00 42 1010.6
20260507164515 65 229 2.0 10.0 0.00 0.00 0.00 40 1010.6
20260507164007 66 247 3.0 10.0 0.00 0.00 0.00 38 1010.7
20260507163507 66 276 3.0 9.0 0.00 0.00 0.00 38 1010.7
20260507163012 66 281 2.0 9.0 0.00 0.00 0.00 39 1010.9
20260507162508 65 318 1.0 5.0 0.00 0.00 0.00 44 1010.8
20260507162006 65 38 0.0 7.0 0.00 0.00 0.00 46 1010.9
20260507161519 64 195 2.0 9.0 0.00 0.00 0.00 45 1010.9
20260507161006 64 212 2.0 9.0 0.00 0.00 0.00 42 1011.0
20260507160506 63 223 2.0 8.0 0.00 0.00 0.00 46 1011.0
20260507160024 63 217 1.0 5.0 0.00 0.00 0.00 45 1011.1
20260507155508 63 305 0.0 5.0 0.00 0.00 0.00 47 1011.2
20260507155009 62 232 2.0 6.0 0.00 0.00 0.00 49 1011.3
20260507154524 61 276 2.0 8.0 0.00 0.00 0.00 52 1011.3
20260507154007 62 281 2.0 8.0 0.00 0.00 0.00 51 1011.4
20260507153504 61 254 0.0 5.0 0.00 0.00 0.00 53 1011.4
20260507153014 61 333 2.0 8.0 0.00 0.00 0.00 53 1011.5
20260507152508 60 263 1.0 8.0 0.00 0.00 0.00 53 1011.5
20260507152006 60 259 1.0 6.0 0.00 0.00 0.00 54 1011.6
20260507151519 59 254 1.0 7.0 0.00 0.00 0.00 58 1011.5
20260507151004 59 281 2.0 7.0 0.00 0.00 0.00 55 1011.6
20260507150509 59 324 1.0 9.0 0.00 0.00 0.00 58 1011.6
20260507150019 58 306 3.0 11.0 0.00 0.00 0.00 57 1011.6
20260507145509 58 260 3.0 11.0 0.00 0.00 0.00 56 1011.7
20260507145007 58 301 2.0 10.0 0.00 0.00 0.00 57 1011.8
20260507144518 58 219 2.0 8.0 0.00 0.00 0.00 59 1011.8
20260507144010 57 319 2.0 7.0 0.00 0.00 0.00 58 1011.8
20260507143505 57 303 2.0 8.0 0.00 0.00 0.00 59 1011.8
20260507143027 55 234 2.0 8.0 0.00 0.00 0.00 60 1011.8
20260507142507 55 243 1.0 6.0 0.00 0.00 0.00 63 1011.9
20260507142012 54 327 1.0 8.0 0.00 0.00 0.00 64 1011.9
20260507141517 55 276 2.0 9.0 0.00 0.00 0.00 63 1012.0
20260507141008 54 63 2.0 9.0 0.00 0.00 0.00 65 1012.0
20260507140507 54 257 0.0 8.0 0.00 0.00 0.00 68 1012.1
20260507140022 54 306 1.0 8.0 0.00 0.00 0.00 66 1012.2
20260507135506 53 305 1.0 7.0 0.00 0.00 0.00 66 1012.2
20260507135005 53 321 0.0 6.0 0.00 0.00 0.00 68 1012.2
20260507134527 52 298 0.0 6.0 0.00 0.00 0.00 69 1012.2
20260507134010 51 263 2.0 8.0 0.00 0.00 0.00 69 1012.2
20260507133506 51 244 2.0 8.0 0.00 0.00 0.00 70 1012.2
20260507133022 51 278 2.0 7.0 0.00 0.00 0.00 71 1012.2
20260507132505 50 127 0.0 8.0 0.00 0.00 0.00 73 1012.1
20260507132012 50 194 1.0 9.0 0.00 0.00 0.00 74 1012.1
20260507131504 49 302 3.0 10.0 0.00 0.00 0.00 74 1012.2
20260507131004 49 336 2.0 10.0 0.00 0.00 0.00 76 1012.3
20260507130508 48 236 3.0 7.0 0.00 0.00 0.00 77 1012.4
20260507130017 48 239 1.0 7.0 0.00 0.00 0.00 78 1012.4
20260507125507 47 300 2.0 8.0 0.00 0.00 0.00 79 1012.5
20260507125004 47 226 1.0 8.0 0.00 0.00 0.00 81 1012.5
20260507124508 47 205 1.0 8.0 0.00 0.00 0.00 80 1012.4
20260507124003 47 5 2.0 8.0 0.00 0.00 0.00 79 1012.5
20260507123503 47 228 2.0 9.0 0.00 0.00 0.00 79 1012.5
20260507123009 47 217 0.0 9.0 0.00 0.00 0.00 79 1012.5
20260507122503 47 283 0.0 7.0 0.00 0.00 0.00 77 1012.5
20260507122008 47 304 1.0 7.0 0.00 0.00 0.00 75 1012.6
20260507121510 47 245 0.0 7.0 0.00 0.00 0.00 75 1012.6
20260507121004 46 213 0.0 9.0 0.00 0.00 0.00 76 1012.6
20260507120508 46 265 1.0 9.0 0.00 0.00 0.00 76 1012.6
20260507120006 46 246 2.0 9.0 0.00 0.00 0.00 77 1012.5
20260507115505 46 297 1.0 4.0 0.00 0.00 0.00 77 1012.5
20260507115010 45 251 1.0 7.0 0.00 0.00 0.00 77 1012.5
20260507114507 45 277 2.0 9.0 0.00 0.00 0.00 76 1012.5
20260507114003 45 303 0.0 9.0 0.00 0.00 0.00 76 1012.5
20260507113504 45 50 0.0 7.0 0.00 0.00 0.00 76 1012.5
20260507113012 45 273 2.0 7.0 0.00 0.00 0.00 76 1012.5
20260507112508 45 285 1.0 8.0 0.00 0.00 0.00 76 1012.5
20260507112004 45 274 2.0 8.0 0.00 0.00 0.00 76 1012.5
20260507111509 45 128 0.0 7.0 0.00 0.00 0.00 76 1012.5
20260507111008 46 238 1.0 7.0 0.00 0.00 0.00 75 1012.5
20260507110503 46 344 1.0 7.0 0.00 0.00 0.00 75 1012.5
20260507110015 46 333 2.0 7.0 0.00 0.00 0.00 75 1012.5
20260507105504 46 252 2.0 7.0 0.00 0.00 0.00 75 1012.5
20260507105004 46 260 1.0 7.0 0.00 0.00 0.00 75 1012.5
20260507104510 46 207 2.0 8.0 0.00 0.00 0.00 75 1012.4
20260507104006 46 257 3.0 8.0 0.00 0.00 0.00 75 1012.5
20260507103508 46 276 1.0 7.0 0.00 0.00 0.00 75 1012.5
20260507103007 46 308 2.0 8.0 0.00 0.00 0.00 75 1012.4
20260507102504 46 306 2.0 8.0 0.00 0.00 0.00 75 1012.3
20260507102008 46 271 1.0 7.0 0.00 0.00 0.00 75 1012.5
20260507101507 46 30 0.0 6.0 0.00 0.00 0.00 75 1012.4
20260507101004 45 218 1.0 6.0 0.00 0.00 0.00 75 1012.5
20260507100506 45 59 0.0 3.0 0.00 0.00 0.00 75 1012.5
20260507100017 46 197 0.0 3.0 0.00 0.00 0.00 74 1012.6
20260507095503 46 179 0.0 5.0 0.00 0.00 0.00 74 1012.7
20260507095011 46 29 1.0 5.0 0.00 0.00 0.00 74 1012.7
20260507094512 46 231 0.0 2.0 0.00 0.00 0.00 73 1012.6
20260507094007 46 89 0.0 3.0 0.00 0.00 0.00 73 1012.8
20260507093505 46 294 0.0 5.0 0.00 0.00 0.00 72 1012.8
20260507093007 46 87 0.0 6.0 0.00 0.00 0.00 72 1012.9
20260507092507 46 249 1.0 6.0 0.00 0.00 0.00 72 1012.9
20260507092009 46 276 1.0 4.0 0.00 0.00 0.00 72 1012.9
20260507091514 46 279 0.0 9.0 0.00 0.00 0.00 71 1012.9
20260507091014 46 167 2.0 9.0 0.00 0.00 0.00 71 1013.0
20260507090504 47 344 1.0 9.0 0.00 0.00 0.00 70 1013.1
20260507090016 46 251 1.0 9.0 0.00 0.00 0.00 70 1013.1
20260507085503 46 246 1.0 4.0 0.00 0.00 0.00 70 1013.2
20260507085007 47 289 1.0 7.0 0.00 0.00 0.00 70 1013.3
20260507084521 47 111 0.0 7.0 0.00 0.00 0.00 69 1013.3
20260507084004 47 158 0.0 7.0 0.00 0.00 0.00 69 1013.4
20260507083507 47 239 2.0 7.0 0.00 0.00 0.00 68 1013.4
20260507083020 47 265 1.0 7.0 0.00 0.00 0.00 69 1013.5
20260507082503 46 107 0.0 7.0 0.00 0.00 0.00 68 1013.5
20260507082010 46 266 0.0 7.0 0.00 0.00 0.00 68 1013.6
20260507081522 47 28 1.0 6.0 0.00 0.00 0.00 67 1013.6
20260507081007 46 346 2.0 6.0 0.00 0.00 0.00 66 1013.7
20260507080506 46 236 0.0 4.0 0.00 0.00 0.00 66 1013.7
20260507080016 46 207 0.0 4.0 0.00 0.00 0.00 65 1013.9
20260507075508 46 218 0.0 3.0 0.00 0.00 0.00 65 1013.9
20260507075004 46 186 0.0 4.0 0.00 0.00 0.00 65 1014.0
20260507074512 46 265 0.0 8.0 0.00 0.00 0.00 64 1014.0
20260507074004 46 285 1.0 8.0 0.00 0.00 0.00 64 1014.0
20260507073508 46 225 0.0 3.0 0.00 0.00 0.00 63 1014.1
20260507073016 46 277 1.0 3.0 0.00 0.00 0.00 63 1014.1
20260507072507 46 251 0.0 4.0 0.00 0.00 0.00 62 1014.2
20260507072008 46 248 0.0 4.0 0.00 0.00 0.00 62 1014.3
20260507071522 46 274 0.0 1.0 0.00 0.00 0.00 61 1014.3
20260507071008 46 195 0.0 3.0 0.00 0.00 0.00 60 1014.3
20260507070504 46 207 0.0 3.0 0.00 0.00 0.00 59 1014.4
20260507070026 46 184 0.0 2.0 0.00 0.00 0.00 60 1014.4
20260507065503 45 250 0.0 1.0 0.00 0.00 0.00 61 1014.6
20260507065006 45 283 0.0 1.0 0.00 0.00 0.00 59 1014.7
20260507064524 46 279 0.0 2.0 0.00 0.00 0.00 58 1014.8
20260507064007 46 279 0.0 2.0 0.00 0.00 0.00 57 1014.8
20260507063508 46 163 0.0 2.0 0.00 0.00 0.00 56 1014.9
20260507063024 46 232 0.0 2.0 0.00 0.00 0.00 56 1014.9
20260507062507 45 229 0.0 2.0 0.00 0.00 0.00 56 1014.9
20260507062007 45 229 0.0 2.0 0.00 0.00 0.00 56 1014.9
20260507061518 44 217 0.0 1.0 0.00 0.00 0.00 58 1015.0
20260507061007 44 294 0.0 1.0 0.00 0.00 0.00 57 1015.0
20260507060506 44 293 0.0 0.0 0.00 0.00 0.00 58 1015.1
20260507060017 44 293 0.0 0.0 0.00 0.00 0.00 57 1015.1
20260507055510 44 293 0.0 0.0 0.00 0.00 0.00 58 1015.2
20260507055007 44 293 0.0 0.0 0.00 0.00 0.00 60 1015.2
20260507054524 43 292 0.0 0.0 0.00 0.00 0.00 62 1015.2
20260507054007 44 292 0.0 0.0 0.00 0.00 0.00 63 1015.3
20260507053509 44 293 0.0 0.0 0.00 0.00 0.00 64 1015.3
20260507053026 43 293 0.0 0.0 0.00 0.00 0.00 65 1015.3
20260507052505 43 293 0.0 0.0 0.00 0.00 0.00 66 1015.2
20260507052012 43 292 0.0 0.0 0.00 0.00 0.00 64 1015.2
20260507051525 44 293 0.0 0.0 0.00 0.00 0.00 62 1015.3
20260507051008 44 293 0.0 0.0 0.00 0.00 0.00 61 1015.4
20260507050506 44 292 0.0 0.0 0.00 0.00 0.00 63 1015.4
20260507050023 44 292 0.0 0.0 0.00 0.00 0.00 59 1015.3
20260507045506 44 292 0.0 0.0 0.00 0.00 0.00 58 1015.3
20260507045006 44 293 0.0 0.0 0.00 0.00 0.00 59 1015.4
20260507044543 44 293 0.0 0.0 0.00 0.00 0.00 58 1015.4
20260507044008 45 293 0.0 0.0 0.00 0.00 0.00 55 1015.5
20260507043509 46 293 0.0 0.0 0.00 0.00 0.00 54 1015.5
20260507043018 45 293 0.0 0.0 0.00 0.00 0.00 53 1015.5
20260507042510 46 292 0.0 0.0 0.00 0.00 0.00 56 1015.5
20260507042009 45 293 0.0 0.0 0.00 0.00 0.00 54 1015.7
20260507041507 45 292 0.0 0.0 0.00 0.00 0.00 54 1015.7
20260507041004 45 292 0.0 0.0 0.00 0.00 0.00 57 1015.7
20260507040504 45 292 0.0 0.0 0.00 0.00 0.00 55 1015.7
20260507040009 44 292 0.0 0.0 0.00 0.00 0.00 58 1015.8
20260507035507 44 293 0.0 0.0 0.00 0.00 0.00 59 1015.8
20260507035005 45 293 0.0 0.0 0.00 0.00 0.00 60 1015.8
20260507034507 45 292 0.0 0.0 0.00 0.00 0.00 57 1015.9
20260507034003 45 293 0.0 0.0 0.00 0.00 0.00 57 1015.8
20260507033505 46 292 0.0 0.0 0.00 0.00 0.00 53 1015.8
20260507033004 46 292 0.0 1.0 0.00 0.00 0.00 55 1015.8
20260507032504 46 292 0.0 1.0 0.00 0.00 0.00 53 1015.8
20260507032003 46 293 0.0 1.0 0.00 0.00 0.00 55 1015.8
20260507031503 47 296 0.0 0.0 0.00 0.00 0.00 53 1015.8
20260507031006 47 296 0.0 0.0 0.00 0.00 0.00 51 1015.8
20260507030509 47 296 0.0 0.0 0.00 0.00 0.00 49 1015.8
20260507030007 47 296 0.0 0.0 0.00 0.00 0.00 47 1015.8
20260507025503 47 296 0.0 0.0 0.00 0.00 0.00 48 1015.8
20260507025006 47 297 0.0 0.0 0.00 0.00 0.00 46 1015.9
20260507024505 48 296 0.0 0.0 0.00 0.00 0.00 47 1015.8
20260507024005 48 296 0.0 0.0 0.00 0.00 0.00 47 1015.8
20260507023505 49 296 0.0 0.0 0.00 0.00 0.00 47 1015.7
20260507023011 49 296 0.0 0.0 0.00 0.00 0.00 47 1015.7
20260507022504 49 296 0.0 0.0 0.00 0.00 0.00 46 1015.6
20260507022004 49 296 0.0 0.0 0.00 0.00 0.00 42 1015.5
20260507021514 50 296 0.0 0.0 0.00 0.00 0.00 42 1015.5
20260507021007 51 296 0.0 0.0 0.00 0.00 0.00 41 1015.5
20260507020503 51 296 0.0 0.0 0.00 0.00 0.00 42 1015.5
20260507020010 51 296 0.0 0.0 0.00 0.00 0.00 39 1015.5
20260507015503 51 296 0.0 0.0 0.00 0.00 0.00 41 1015.5
20260507015006 51 296 0.0 0.0 0.00 0.00 0.00 40 1015.5
20260507014508 52 296 0.0 0.0 0.00 0.00 0.00 40 1015.5
20260507014004 52 297 0.0 0.0 0.00 0.00 0.00 38 1015.4
20260507013504 53 296 0.0 0.0 0.00 0.00 0.00 37 1015.4
20260507013011 53 296 0.0 0.0 0.00 0.00 0.00 37 1015.5
20260507012502 53 296 0.0 0.0 0.00 0.00 0.00 35 1015.4
20260507012007 53 296 0.0 0.0 0.00 0.00 0.00 35 1015.4
20260507011509 54 296 0.0 0.0 0.00 0.00 0.00 34 1015.4
20260507011003 54 296 0.0 1.0 0.00 0.00 0.00 35 1015.4
20260507010506 55 296 0.0 1.0 0.00 0.00 0.00 34 1015.4
20260507010006 55 297 0.0 1.0 0.00 0.00 0.00 36 1015.5
20260507005508 56 296 0.0 2.0 0.00 0.00 0.00 33 1015.4
20260507005003 56 296 0.0 3.0 0.00 0.00 0.00 31 1015.5
20260507004511 57 296 1.0 3.0 0.00 0.00 0.00 33 1015.5
20260507004008 57 250 1.0 4.0 0.00 0.00 0.00 31 1015.5
20260507003504 57 320 0.0 5.0 0.00 0.00 0.00 31 1015.5
20260507003019 57 320 2.0 5.0 0.00 0.00 0.00 30 1015.6
20260507002506 57 309 1.0 5.0 0.00 0.00 0.00 31 1015.6
20260507002004 57 332 1.0 5.0 0.00 0.00 0.00 32 1015.6
20260507001520 58 348 0.0 6.0 0.00 0.00 0.00 32 1015.7
20260507001008 58 335 2.0 6.0 0.00 0.00 0.00 30 1015.7
20260507000506 58 327 1.0 9.0 0.00 0.00 0.00 32 1015.8
20260507000012 58 321 2.0 9.0 0.00 0.00 0.00 30 1015.8
20260506235504 59 312 1.0 8.0 0.00 0.00 0.00 31 1015.8
20260506235008 58 323 2.0 8.0 0.00 0.00 0.00 30 1015.8
20260506234510 59 328 3.0 9.0 0.00 0.00 0.00 29 1015.9
20260506234003 59 277 3.0 9.0 0.00 0.00 0.00 31 1015.9
20260506233506 59 317 3.0 9.0 0.00 0.00 0.00 31 1016.0
20260506233012 60 340 2.0 7.0 0.00 0.00 0.00 28 1016.0
20260506232508 60 348 2.0 12.0 0.00 0.00 0.00 30 1016.0
20260506232007 59 19 5.0 16.0 0.00 0.00 0.00 30 1016.0
20260506231513 59 327 7.0 16.0 0.00 0.00 0.00 29 1016.0
20260506231007 59 5 1.0 4.0 0.00 0.00 0.00 28 1016.0
20260506230502 59 331 1.0 9.0 0.00 0.00 0.00 34 1016.1
20260506230010 58 329 4.0 9.0 0.00 0.00 0.00 31 1016.1
20260506225507 58 322 2.0 8.0 0.00 0.00 0.00 30 1016.1
20260506225007 59 19 1.0 8.0 0.00 0.00 0.00 32 1016.2
20260506224516 59 333 1.0 9.0 0.00 0.00 0.00 32 1016.2
20260506224007 58 317 3.0 9.0 0.00 0.00 0.00 30 1016.2